Regional Weather Roundup
Issued by NWS Kansas City/Pleasant Hill, MO

Home | Current Version | Previous Version | Text Only | Print | Product List | Glossary On
Versions: 1 2 3 4 5 6 7 8 9 10 11 12 13 14 15 16 17 18 19 20 21 22 23 24 25 26 27 28 29 30 31 32 33 34 35 36 37 38 39 40 41 42 43 44 45 46 47 48 49 50
000
ASUS43 KEAX 311604
RWREAX

WEATHER ROUNDUP FOR EASTERN KANSAS AND NORTHWEST MISSOURI
NATIONAL WEATHER SERVICE KANSAS CITY/PLEASANT HILL MO
1100 AM CDT THU JUL 31 2014

KSZ040-057-103>105-MOZ028-029-037-043-311700-
...KANSAS CITY METROPOLITAN AREA...

CITY           SKY/WX    TMP DP  RH WIND       PRES   REMARKS
K.C. INTL      PTSUNNY   76  63  64 W6        30.12S
K.C. DOWNTOWN  PTSUNNY   78  59  51 E3        30.11R
LEES SUMMIT    MOSUNNY   77  60  55 CALM      30.12S
OLATHE - IXD   MOSUNNY   77  57  50 CALM      30.13R
OLATHE - OJC   MOSUNNY   77  56  48 E5        30.12R
LAWRENCE       MOSUNNY   79  60  52 NW5       30.12S

$$

MOZ001>008-011>017-020>025-030>033-038>040-044>046-053-054-311700-
...NORTHERN AND CENTRAL MISSOURI...

CITY           SKY/WX    TMP DP  RH WIND       PRES   REMARKS
ST. JOSEPH     SUNNY     76  59  55 W3        30.13R
MOSBY          MOSUNNY   77  61  57 E5        30.12R
WHITEMAN AFB   SUNNY     77  50  38 SE2       30.11S
CLINTON        SUNNY     77  64  65 CALM      30.11S
SEDALIA        SUNNY     80  60  50 S3        30.12R
WARSAW         NOT AVBL
MARSHALL       SUNNY     81  64  57 SE5       30.12S HAZE
CHILLICOTHE      N/A     78  59  51 VRB3      30.13R
KIRKSVILLE     SUNNY     78  58  49 W5        30.13R

$$

MOZ041-047>049-056>058-063>065-088>090-097-311700-
...EASTERN AND SOUTHERN MISSOURI...

CITY           SKY/WX    TMP DP  RH WIND       PRES   REMARKS
ST. LOUIS INTL MOSUNNY   80  59  48 VRB3      30.10S
SPIRIT OF STL  MOSUNNY   80  60  50 W5        30.09S
COLUMBIA       SUNNY     80  59  48 VRB6      30.11S
JEFFERSON CITY SUNNY     77  60  55 CALM      30.10S
HANNIBAL       SUNNY     81  57  44 CALM      30.12R
ROLLA          SUNNY     78  57  48 VRB3      30.10S
LEBANON        SUNNY     79  55  44 SE7       30.12S
OSAGE BEACH    SUNNY     79  63  57 CALM      30.11R
SPRINGFIELD    MOSUNNY   73  61  65 CALM      30.11S
BRANSON        CLOUDY    70  66  88 CALM      30.13R
NEVADA         CLOUDY    77  63  61 E3        30.12S
JOPLIN         PTSUNNY   74  64  71 VRB5      30.11S
WEST PLAINS    CLOUDY    72  63  73 SE5       30.13R

$$

IAZ060-094-KSZ022-034>040-054-083-096-NEZ052-066-093-311700-
...KANSAS...SOUTHEAST NEBRASKA AND IOWA...

CITY           SKY/WX    TMP DP  RH WIND       PRES   REMARKS
TOPEKA         MOSUNNY   79  58  48 CALM      30.13S
MANHATTAN      SUNNY     77  57  50 S6        30.13S
EMPORIA        SUNNY     75  58  55 CALM      30.13S
CHANUTE        CLOUDY    73  64  73 N3        30.12S
WICHITA        MOSUNNY   75  61  61 NE8       30.14S
OMAHA          MOSUNNY   78  54  43 S6        30.11S
LINCOLN        SUNNY     81  53  37 S8        30.11F
FALLS CITY     SUNNY     77  56  48 CALM      30.12S
LAMONI         SUNNY     75  55  49 SW3       30.13R
DES MOINES     MOSUNNY   77  60  55 W5        30.10S

$$




USA.gov is the U.S. government's official web portal to all federal, state and local government web resources and services.